Regional Weather Roundup
Issued by NWS Kansas City/Pleasant Hill, MO

Home | Current Version | Previous Version | Text Only | Print | Product List | Glossary On
Versions: 1 2 3 4 5 6 7 8 9 10 11 12 13 14 15 16 17 18 19 20 21 22 23 24 25 26 27 28 29 30 31 32 33 34 35 36 37 38 39 40 41 42 43 44 45 46 47 48 49 50
000
ASUS43 KEAX 041904
RWREAX

WEATHER ROUNDUP FOR EASTERN KANSAS AND NORTHWEST MISSOURI
NATIONAL WEATHER SERVICE KANSAS CITY/PLEASANT HILL MO
100 PM CST WED MAR 04 2015

KSZ040-057-103>105-MOZ028-029-037-043-042000-
...KANSAS CITY METROPOLITAN AREA...

CITY           SKY/WX    TMP DP  RH WIND       PRES   REMARKS
K.C. INTL      NOT AVBL
K.C. DOWNTOWN  NOT AVBL
LEES SUMMIT    NOT AVBL
OLATHE - IXD   NOT AVBL
OLATHE - OJC   NOT AVBL

$$

MOZ001>008-011>017-020>025-030>033-038>040-044>046-053-054-042000-
...NORTHERN AND CENTRAL MISSOURI...

CITY           SKY/WX    TMP DP  RH WIND       PRES   REMARKS
ST. JOSEPH     NOT AVBL
MOSBY          MOCLDY    27   1  33 N14       30.32R WCI  15
WHITEMAN AFB   NOT AVBL
CLINTON        DRIZZLE   27  10  50 N15       30.29F WCI  15
SEDALIA        NOT AVBL
WARSAW         NOT AVBL
MARSHALL       PTSUNNY   27  10  50 NE14      30.31R WCI  15
CHILLICOTHE      N/A     26   6  42 VRB7      30.33S WCI  18
MOBERLY        MOSUNNY   27   3  36 N12       30.28S WCI  16
KIRKSVILLE     NOT AVBL

$$

MOZ041-047>049-056>058-063>065-088>090-097-042000-
...EASTERN AND SOUTHERN MISSOURI...

CITY           SKY/WX    TMP DP  RH WIND       PRES   REMARKS
ST. LOUIS INTL FLURRIES  23   7  50 N9        30.23F WCI  13
MEXICO         CLOUDY    25  10  54 NW14      30.26S WCI  13
HANNIBAL       PTSUNNY   23   1  39 N10       30.27  WCI  12
BRANSON        LGT SNOW  27  25  93 N15       30.13F WCI  15
WEST PLAINS    SNOW      23  18  81 N18G26    30.10F VSB 1/2 WCI   9

$$

IAZ060-094-KSZ022-034>040-054-083-096-NEZ052-066-093-042000-
...KANSAS...SOUTHEAST NEBRASKA AND IOWA...

CITY           SKY/WX    TMP DP  RH WIND       PRES   REMARKS
TOPEKA         NOT AVBL

$$




USA.gov is the U.S. government's official web portal to all federal, state and local government web resources and services.